Bettles, AK

3:02 PM AKDT on July 26, 2017 (GMT -0800)
Bettles

Weather History for PABT - November, 2012

Change the Weather History Date:

Tuesday, November 27, 2012

  Actual Average Record
Temperature  
Mean Temperature -12 °F -  
Max Temperature -5 °F 1 °F 36 °F (1956)
Min Temperature -20 °F -13 °F -54 °F (1974)
Degree Days  
Heating Degree Days 78    
Moisture  
Dew Point -14 °F    
Average Humidity 76    
Maximum Humidity 83    
Minimum Humidity 62    
Precipitation  
Precipitation 0.00 in - - ()
Snow  
Snow 0.00 in - - ()
Snow Depth 1.00 in    
Sea Level Pressure  
Sea Level Pressure 30.40 in    
Wind  
Wind Speed 6 mph (NNW)    
Max Wind Speed 8 mph    
Max Gust Speed -    
Visibility 10 miles    
Events      
Averages and records for this station are not official NWS values.
T = Trace of Precipitation, MM = Missing Value Source: NWS Daily Summary

Daily Weather History Graph

Daily Weather History Graph

Search for Another Location

Airport or City:

Trip Planner

Search our weather history database for the weather conditions in past years. The results will help you decide how hot, cold, wet, or windy it might be!

Date:

Astronomy

Nov. 27, 2012 Rise Set
Actual Time 10:58 AM AKST 2:49 PM AKST
Civil Twilight 9:29 AM AKST 4:17 PM AKST
Nautical Twilight 8:14 AM AKST 5:32 PM AKST
Astronomical Twilight 7:09 AM AKST 6:37 PM AKST
Moon 2:38 PM AKST (11/27) 9:58 AM AKST (11/27)
Length of Visible Light 6h 47m
Length of Day
3h 50m
Full, 100% of the Moon is Illuminated
Nov 27
Full
Nov 28
Full
Dec 6
Last Quarter
Dec 12
New
Dec 19
First Quarter

Hourly Weather History & Observations

Time (AKST) Temp. Windchill Dew Point Humidity Pressure Visibility Wind Dir Wind Speed Gust Speed Precip Events Conditions
12:53 AM -9.9 °F -23.4 °F -15.0 °F 78% 30.28 in 10.0 mi North 5.8 mph - N/A   Clear
1:53 AM -8.0 °F -23.9 °F -13.0 °F 79% 30.28 in 10.0 mi North 8.1 mph - N/A   Clear
2:53 AM -9.0 °F -25.2 °F -14.1 °F 79% 30.29 in 10.0 mi NNE 8.1 mph - N/A   Clear
3:53 AM -8.0 °F -22.5 °F -14.1 °F 75% 30.31 in 10.0 mi North 6.9 mph - N/A   Clear
4:53 AM -9.0 °F -22.3 °F -14.1 °F 79% 30.32 in 10.0 mi NNW 5.8 mph - N/A   Clear
5:53 AM -9.0 °F -23.8 °F -13.0 °F 83% 30.33 in 10.0 mi NNW 6.9 mph - N/A   Clear
6:53 AM -8.0 °F -19.2 °F -13.0 °F 79% 30.33 in 10.0 mi NNW 4.6 mph - N/A   Clear
7:53 AM -6.0 °F - -11.0 °F 79% 30.35 in 10.0 mi Calm Calm - N/A   Partly Cloudy
8:53 AM -9.9 °F -23.4 °F -16.1 °F 74% 30.36 in 10.0 mi NNW 5.8 mph - N/A   Partly Cloudy
9:53 AM -9.9 °F -21.5 °F -15.0 °F 78% 30.38 in 10.0 mi NNE 4.6 mph - N/A   Partly Cloudy
10:53 AM -9.0 °F -20.4 °F -15.0 °F 75% 30.40 in 10.0 mi North 4.6 mph - N/A   Partly Cloudy
11:53 AM -8.0 °F -22.5 °F -11.9 °F 83% 30.42 in 10.0 mi NW 6.9 mph - N/A   Scattered Clouds
12:53 PM -7.1 °F -15.9 °F -11.9 °F 79% 30.42 in 10.0 mi NNW 3.5 mph - N/A   Scattered Clouds
1:53 PM -7.1 °F -18.1 °F -11.9 °F 79% 30.43 in 10.0 mi NW 4.6 mph - N/A   Scattered Clouds
2:53 PM -6.0 °F -18.6 °F -11.0 °F 79% 30.44 in 10.0 mi NW 5.8 mph - N/A   Partly Cloudy
3:53 PM -9.0 °F -20.4 °F -14.1 °F 79% 30.45 in 10.0 mi NW 4.6 mph - N/A   Partly Cloudy
4:53 PM -9.0 °F -20.4 °F -14.1 °F 79% 30.46 in 10.0 mi NNW 4.6 mph - N/A   Partly Cloudy
5:53 PM -9.9 °F -24.9 °F -16.1 °F 74% 30.47 in 10.0 mi NNW 6.9 mph - N/A   Partly Cloudy
6:53 PM -9.0 °F -20.4 °F -14.1 °F 79% 30.48 in 10.0 mi NNW 4.6 mph - N/A   Clear
7:53 PM -9.0 °F -22.3 °F -14.1 °F 79% 30.49 in 10.0 mi NW 5.8 mph - N/A   Clear
8:53 PM -9.9 °F -24.9 °F -15.0 °F 78% 30.50 in 10.0 mi NNW 6.9 mph - N/A   Clear
9:53 PM -9.0 °F -23.8 °F -15.0 °F 75% 30.51 in 10.0 mi NNW 6.9 mph - N/A   Clear
10:53 PM -9.9 °F -23.4 °F -16.1 °F 74% 30.51 in 10.0 mi NNW 5.8 mph - N/A   Clear
11:53 PM -11.0 °F -24.6 °F -17.0 °F 75% 30.52 in 10.0 mi NNW 5.8 mph - N/A   Clear